DW7003 Weather Reports


time (UTC)temp
F
wind
direction
speed
knots
gust
knots
rain 1hr
in
rain 24hr
in
rain mn
in
humidity
%
barometer
mb
20260504004518 54 125 0.0 0.0 0.00 0.00 0.00 49 1012.6
20260504003016 55 125 0.0 0.0 0.00 0.00 0.00 47 1012.4
20260504001515 56 125 0.0 0.0 0.00 0.00 0.00 43 1012.2
20260504000015 57 125 0.0 0.0 0.00 0.00 0.00 40 1012.1
20260503234519 58 125 0.0 0.0 0.00 0.00 0.00 38 1012.0
20260503233013 58 125 0.0 0.0 0.00 0.00 0.00 36 1011.8
20260503231516 59 126 0.0 6.1 0.00 0.00 0.00 34 1011.8
20260503230015 59 86 0.0 1.7 0.00 0.00 0.00 34 1011.6
20260503224513 60 82 0.0 2.6 0.00 0.00 0.00 32 1011.6
20260503223013 60 330 0.0 1.7 0.00 0.00 0.00 33 1011.5
20260503221511 60 55 0.0 2.6 0.00 0.00 0.00 32 1011.4
20260503220011 60 44 0.0 2.6 0.00 0.00 0.00 32 1011.4
20260503214532 60 28 0.9 5.2 0.00 0.00 0.00 31 1011.5
20260503213010 60 86 0.0 5.2 0.00 0.00 0.00 32 1011.3
20260503211510 60 143 0.0 5.2 0.00 0.00 0.00 34 1011.3
20260503210010 60 9 0.0 7.8 0.00 0.00 0.00 34 1011.3
20260503204507 60 53 0.9 5.2 0.00 0.00 0.00 32 1011.2
20260503203007 60 292 0.0 7.0 0.00 0.00 0.00 32 1011.0
20260503201507 60 148 0.9 11.3 0.00 0.00 0.00 34 1011.2
20260503200006 60 40 0.0 3.5 0.00 0.00 0.00 34 1011.2
20260503194504 61 119 1.7 14.8 0.00 0.00 0.00 34 1011.5
20260503193002 60 92 0.0 5.2 0.00 0.00 0.00 39 1011.5
20260503191502 59 9 0.0 6.1 0.00 0.00 0.00 35 1011.8
20260503190056 58 93 0.0 5.2 0.00 0.00 0.00 39 1011.9
20260503184616 57 316 0.9 10.4 0.00 0.00 0.00 37 1012.0
20260503183054 57 92 0.0 7.0 0.00 0.00 0.00 40 1012.2
20260503181611 56 336 0.0 4.3 0.00 0.00 0.00 39 1012.2
20260503180111 56 355 0.0 3.5 0.00 0.00 0.00 42 1012.3
20260503174557 57 5 0.0 7.8 0.00 0.00 0.00 42 1012.3
20260503173101 57 134 1.7 9.6 0.00 0.00 0.00 38 1012.4
20260503171551 55 340 0.0 4.3 0.00 0.00 0.00 41 1012.3
20260503081542 48 99 0.0 0.0 0.00 0.00 0.00 54 1009.7
20260503071536 50 100 0.0 1.7 0.00 0.00 0.00 52 1009.8
20260503054521 52 109 0.0 0.9 0.00 0.00 0.00 49 1010.2
20260503053020 52 110 0.0 0.0 0.00 0.00 0.00 48 1010.4
20260503051532 52 110 0.0 1.7 0.00 0.00 0.00 49 1010.3
20260503050017 52 113 0.0 0.0 0.00 0.00 0.00 50 1010.3
20260503044515 52 113 0.0 0.9 0.00 0.00 0.00 50 1010.6
20260503043014 52 113 0.0 0.9 0.00 0.00 0.00 51 1010.8
20260503041511 52 113 0.0 0.0 0.00 0.00 0.00 54 1010.9
20260503040008 52 113 0.0 0.0 0.00 0.00 0.00 56 1010.9
20260503034508 52 113 0.0 0.0 0.00 0.00 0.00 57 1010.6
20260503033012 52 113 0.0 0.0 0.00 0.00 0.00 58 1010.9
20260503031507 52 113 0.0 0.0 0.00 0.00 0.00 57 1010.8
20260503030130 52 113 0.0 0.0 0.00 0.00 0.00 59 1010.7
20260503024505 52 113 0.0 0.0 0.00 0.00 0.00 60 1010.5
20260503023004 52 113 0.0 0.0 0.00 0.00 0.00 64 1010.7
20260503021504 52 113 0.0 0.0 0.00 0.00 0.00 66 1010.9
20260503020003 52 113 0.0 0.0 0.00 0.00 0.00 72 1010.7
20260503014502 53 113 0.0 0.0 0.00 0.00 0.00 78 1010.9
20260503013002 53 113 0.0 0.0 0.00 0.00 0.00 78 1010.9
20260503011506 53 113 0.0 0.0 0.00 0.00 0.00 77 1010.9
20260503010001 53 113 0.0 0.0 0.00 0.00 0.00 76 1010.7